When you browse on this site, cookies collect data to enhance your experience and personalize the content and advertising you see.
Visit our Privacy Policy to learn more. By continuing to use the site, you agree to this use of cookies and data.
  • In Austria
  • List of Countries
  • For 7 days
  • Water Temperature
  • Satellite Maps
  • Weather Map
  • News
  • Weather Widgets
  • user-avatar
    Login

    Hourly Weather Erfurt

    Today, 17 January, Thursday

    Time Temperature Precipitation Wind Pressure Humidity
    00:00 0°C° 0 mm 7 mps 735 mmHg 76%
    01:00 0°C° 0 mm 8 mps 734 mmHg 75%
    02:00 0°C° 0 mm 8 mps 734 mmHg 77%
    03:00 0°C° 0 mm 8 mps 734 mmHg 78%
    04:00 0°C° 0 mm 8 mps 733 mmHg 80%
    05:00 +1°C° 0 mm 8 mps 733 mmHg 80%
    06:00 +2°C° 0 mm 7 mps 733 mmHg 80%
    07:00 +2°C° 0 mm 7 mps 733 mmHg 81%
    08:00 +3°C° 0.1 mm 7 mps 733 mmHg 81%
    09:00 +3°C° 0.1 mm 6 mps 734 mmHg 82%
    10:00 +3°C° 0.1 mm 6 mps 734 mmHg 82%
    11:00 +3°C° 0.1 mm 6 mps 734 mmHg 79%
    12:00 +4°C° 0.1 mm 6 mps 733 mmHg 76%
    13:00 +4°C° 0.1 mm 6 mps 733 mmHg 73%
    14:00 +4°C° 0 mm 6 mps 733 mmHg 73%
    15:00 +4°C° 0 mm 7 mps 733 mmHg 72%
    16:00 +4°C° 0 mm 7 mps 733 mmHg 71%
    17:00 +3°C° 0.5 mm 7 mps 733 mmHg 74%
    18:00 +2°C° 0.5 mm 7 mps 733 mmHg 77%
    19:00 +2°C° 0.5 mm 7 mps 734 mmHg 79%
    20:00 0°C° 0.2 mm 7 mps 735 mmHg 78%
    21:00 -1°C° 0.2 mm 6 mps 735 mmHg 76%
    22:00 -1°C° 0.2 mm 6 mps 736 mmHg 75%
    23:00 -2°C° 0 mm 6 mps 737 mmHg 76%

    Tomorrow, 18 January, Friday

    Time Temperature Precipitation Wind Pressure Humidity
    00:00 -2°C° 0 mm 6 mps 738 mmHg 78%
    01:00 -3°C° 0 mm 6 mps 738 mmHg 80%
    02:00 -3°C° 0 mm 6 mps 739 mmHg 80%
    03:00 -2°C° 0 mm 5 mps 740 mmHg 80%
    04:00 -4°C° 0 mm 5 mps 740 mmHg 80%
    05:00 -4°C° 0 mm 5 mps 741 mmHg 79%
    06:00 -3°C° 0 mm 4 mps 742 mmHg 78%
    07:00 -3°C° 0 mm 4 mps 743 mmHg 77%
    08:00 -3°C° 0 mm 4 mps 743 mmHg 75%
    09:00 -3°C° 0 mm 4 mps 744 mmHg 73%
    10:00 -2°C° 0 mm 4 mps 745 mmHg 71%
    11:00 -2°C° 0 mm 4 mps 745 mmHg 66%
    12:00 -1°C° 0 mm 4 mps 746 mmHg 61%
    13:00 +1°C° 0 mm 3 mps 746 mmHg 56%
    14:00 +1°C° 0 mm 3 mps 746 mmHg 59%
    15:00 +1°C° 0 mm 2 mps 746 mmHg 62%
    16:00 +2°C° 0 mm 1 mps 746 mmHg 66%
    17:00 +2°C° 0 mm 1 mps 746 mmHg 68%
    18:00 +1°C° 0 mm 1 mps 747 mmHg 71%
    19:00 0°C° 0 mm 1 mps 747 mmHg 74%
    20:00 0°C° 0 mm 1 mps 747 mmHg 73%
    21:00 0°C° 0 mm 1 mps 747 mmHg 73%
    22:00 0°C° 0 mm 1 mps 747 mmHg 73%
    23:00 0°C° 0 mm 1 mps 747 mmHg 73%

    Day after tomorrow, 19 January, Saturday

    Time Temperature Precipitation Wind Pressure Humidity
    00:00 0°C° 0 mm 1 mps 747 mmHg 73%
    01:00 0°C° 0 mm 1 mps 747 mmHg 73%
    02:00 -1°C° 0 mm 1 mps 747 mmHg 73%
    03:00 -1°C° 0 mm 1 mps 747 mmHg 72%
    04:00 -1°C° 0 mm 1 mps 747 mmHg 72%
    05:00 -1°C° 0 mm 1 mps 747 mmHg 71%
    06:00 -1°C° 0 mm 1 mps 747 mmHg 70%
    07:00 -1°C° 0 mm 1 mps 747 mmHg 69%
    08:00 0°C° 0 mm 1 mps 747 mmHg 65%
    09:00 0°C° 0 mm 1 mps 747 mmHg 62%
    10:00 +1°C° 0 mm 1 mps 747 mmHg 58%
    11:00 +1°C° 0 mm 1 mps 746 mmHg 53%
    12:00 +1°C° 0 mm 2 mps 746 mmHg 48%
    13:00 +2°C° 0 mm 2 mps 746 mmHg 43%
    14:00 +2°C° 0 mm 2 mps 745 mmHg 47%
    15:00 +1°C° 0 mm 2 mps 745 mmHg 52%
    16:00 -1°C° 0 mm 2 mps 745 mmHg 57%
    17:00 -1°C° 0 mm 2 mps 745 mmHg 62%
    18:00 -2°C° 0 mm 2 mps 745 mmHg 67%
    19:00 -3°C° 0 mm 2 mps 745 mmHg 72%
    20:00 -3°C° 0 mm 2 mps 745 mmHg 73%
    21:00 -3°C° 0 mm 2 mps 745 mmHg 73%
    22:00 -2°C° 0 mm 1 mps 745 mmHg 74%
    23:00 -2°C° 0 mm 1 mps 744 mmHg 73%

    20 January, Sunday

    Time Temperature Precipitation Wind Pressure Humidity
    00:00 -2°C° 0 mm 1 mps 744 mmHg 73%
    01:00 -2°C° 0 mm 1 mps 744 mmHg 72%
    02:00 -2°C° 0 mm 1 mps 744 mmHg 73%
    03:00 -2°C° 0 mm 1 mps 744 mmHg 73%
    04:00 -3°C° 0 mm 1 mps 744 mmHg 74%
    05:00 -3°C° 0 mm 1 mps 744 mmHg 74%
    06:00 -3°C° 0 mm 1 mps 744 mmHg 75%
    07:00 -3°C° 0 mm 1 mps 744 mmHg 75%
    08:00 -2°C° 0 mm 1 mps 745 mmHg 72%
    09:00 -2°C° 0 mm 1 mps 745 mmHg 70%
    10:00 -1°C° 0 mm 1 mps 745 mmHg 67%
    11:00 -1°C° 0 mm 1 mps 745 mmHg 63%
    12:00 0°C° 0 mm 1 mps 745 mmHg 58%
    13:00 +1°C° 0 mm 1 mps 745 mmHg 54%
    14:00 +1°C° 0 mm 1 mps 745 mmHg 56%
    15:00 +1°C° 0 mm 1 mps 745 mmHg 59%
    16:00 0°C° 0 mm 1 mps 745 mmHg 61%
    17:00 -1°C° 0 mm 1 mps 746 mmHg 65%
    18:00 -1°C° 0 mm 1 mps 746 mmHg 69%
    19:00 -2°C° 0 mm 1 mps 746 mmHg 72%
    20:00 -2°C° 0 mm 1 mps 747 mmHg 73%
    21:00 -2°C° 0 mm 1 mps 747 mmHg 75%
    22:00 -2°C° 0 mm 1 mps 747 mmHg 76%
    23:00 -2°C° 0 mm 1 mps 747 mmHg 76%

    21 January, Monday

    Time Temperature Precipitation Wind Pressure Humidity
    00:00 -2°C° 0 mm 1 mps 747 mmHg 77%
    01:00 -2°C° 0 mm 1 mps 748 mmHg 78%
    02:00 -3°C° 0 mm 1 mps 747 mmHg 78%
    03:00 -3°C° 0 mm 1 mps 747 mmHg 79%
    04:00 -3°C° 0 mm 1 mps 747 mmHg 80%
    05:00 -3°C° 0 mm 1 mps 747 mmHg 80%
    06:00 -3°C° 0 mm 1 mps 747 mmHg 81%
    07:00 -3°C° 0 mm 1 mps 747 mmHg 82%
    08:00 -4°C° 0 mm 2 mps 747 mmHg 79%
    09:00 -4°C° 0 mm 2 mps 747 mmHg 76%
    10:00 -3°C° 0 mm 2 mps 747 mmHg 73%
    11:00 -2°C° 0 mm 2 mps 746 mmHg 69%
    12:00 -1°C° 0 mm 2 mps 746 mmHg 64%
    13:00 +1°C° 0 mm 2 mps 746 mmHg 59%
    14:00 -1°C° 0 mm 2 mps 746 mmHg 62%
    15:00 -1°C° 0 mm 2 mps 745 mmHg 65%
    16:00 +1°C° 0 mm 1 mps 745 mmHg 68%
    17:00 -2°C° 0 mm 2 mps 745 mmHg 73%
    18:00 -3°C° 0 mm 2 mps 745 mmHg 78%
    19:00 -3°C° 0 mm 2 mps 744 mmHg 83%
    20:00 -3°C° 0 mm 2 mps 744 mmHg 84%
    21:00 -3°C° 0 mm 2 mps 744 mmHg 85%
    22:00 -3°C° 0 mm 2 mps 744 mmHg 86%
    23:00 -3°C° 0 mm 2 mps 744 mmHg 87%

    22 January, Tuesday

    Time Temperature Precipitation Wind Pressure Humidity
    00:00 -3°C° 0 mm 2 mps 744 mmHg 88%
    01:00 -2°C° 0 mm 2 mps 743 mmHg 88%
    02:00 -2°C° 0 mm 2 mps 743 mmHg 89%
    03:00 -2°C° 0 mm 2 mps 742 mmHg 90%
    04:00 -2°C° 0 mm 2 mps 741 mmHg 91%
    05:00 -2°C° 0 mm 2 mps 741 mmHg 92%
    06:00 -3°C° 0 mm 2 mps 741 mmHg 92%
    07:00 -3°C° 0 mm 2 mps 740 mmHg 93%
    08:00 -2°C° 0 mm 2 mps 740 mmHg 90%
    09:00 -2°C° 0 mm 2 mps 740 mmHg 88%
    10:00 -1°C° 0 mm 2 mps 739 mmHg 85%
    11:00 -1°C° 0 mm 2 mps 739 mmHg 80%
    12:00 +1°C° 0 mm 2 mps 738 mmHg 75%
    13:00 +1°C° 0 mm 3 mps 738 mmHg 70%
    14:00 +2°C° 0 mm 2 mps 737 mmHg 72%
    15:00 +1°C° 0 mm 2 mps 736 mmHg 74%
    16:00 +1°C° 0 mm 2 mps 736 mmHg 75%
    17:00 -1°C° 0 mm 2 mps 736 mmHg 79%
    18:00 -2°C° 0 mm 2 mps 735 mmHg 82%
    19:00 -3°C° 0 mm 2 mps 735 mmHg 85%
    20:00 -3°C° 0 mm 2 mps 735 mmHg 86%
    21:00 -3°C° 0 mm 2 mps 735 mmHg 86%
    22:00 -3°C° 0 mm 2 mps 735 mmHg 87%
    23:00 -3°C° 0 mm 2 mps 735 mmHg 87%
    Show more